Regional Weather Roundup
Issued by NWS

Home | Current Version | Previous Version | Text Only | Print | Product List | Glossary Off
Versions: 1 2 3 4 5 6 7 8 9 10 11 12 13 14 15 16 17 18 19 20 21 22 23 24 25 26 27 28 29 30 31 32 33 34 35 36 37 38 39 40 41 42 43 44 45 46 47 48 49 50

000
ASUS45 KTFX 010004
RWRMT
MONTANA HOURLY WEATHER ROUNDUP
NATIONAL WEATHER SERVICE GREAT FALLS MT
604 PM MDT THU JUL 31 2014

NOTE: "FAIR" INDICATES FEW OR NO CLOUDS BELOW 12000 FEET WITH NO
SIGNIFICANT WEATHER AND/OR OBSTRUCTIONS TO VISIBILITY.

* THESE STATIONS ARE NOT UNDER NWS QUALITY CONTROL. THEY DO NOT
   REPORT WEATHER SUCH AS PRECIPITATION OR FOG.

MTZ001>007-043-010100-
WEST OF THE DIVIDE
CITY           SKY/WX    TMP DP  RH WIND       PRES   REMARKS
KALISPELL      PTCLDY    93  46  20 S7        30.02F
MISSOULA       PTCLDY    95  37  13 NW10      30.04F
BUTTE          PTCLDY    81  37  21 SE13      30.22F
MULLAN PASS    PTCLDY    79  37  22 VRB3      30.29S
* ESSEX        N/A      N/A N/A N/A N/A        N/A
* LINCOLN      N/A       76  44  32 NE12G22    N/A
* LOOKOUT PASS N/A       84  38  19 N6G16      N/A
* POLSON       N/A       90  41  18 SE3        N/A
* RONAN APT    CLEAR     91  45  20 N/A        N/A
* SEELEY LAKE  N/A       90  38  16 NW7G17     N/A
* THOMP F APT  CLEAR     70  51  51 NE3G8      N/A
$$

MTZ008-052>055-010100-
SOUTHWEST MONTANA
CITY           SKY/WX    TMP DP  RH WIND       PRES   REMARKS
BOZEMAN        MOCLDY    84  36  18 NW8       30.14F
DILLON         MOCLDY    79  46  31 NE13      30.20F
W YELLOWSTONE  CLOUDY    70  39  32 NW6       30.31S
* THREE FORKS  CLOUDY    88  55  33 N/A        N/A
* BOULDER HILL N/A       79  42  27 N/A        N/A
* MONIDA PASS  N/A       74  39  28 SW2        N/A
* RAYNOLDS PAS N/A       68  41  38 SE13       N/A
* WHITEHALL    N/A       82  39  22 W7G16      N/A
* WISE RIVER   N/A       84  39  20 W9G17      N/A
$$

MTZ009>010-012-014-046-048-049-054-010100-
EAST SLOPES AND CENTRAL MONTANA
CITY           SKY/WX    TMP DP  RH WIND       PRES   REMARKS
CUT BANK       PTCLDY    88  43  21 NW8       30.12F
GREAT FALLS    MOCLDY    88  34  15 CALM      30.11F
HELENA         MOCLDY    88  34  15 N21G30    30.11S
MALMSTROM AFB  CLOUDY    86  34  16 S7        30.10F
* CONRAD       PTCLDY    90  45  21 W8         N/A
* DEARBORN     N/A       85  43  23 VRB6G13    N/A
* EAST GLACIER N/A       81  42  25 E3         N/A
* MONARCH      N/A       74  40  29 NW16G26    N/A
* PENDROY      N/A       85  46  26 NE5G12     N/A
* ROGERS PASS  N/A       74  48  40 S1         N/A
* SAINT MARY   N/A       79  57  47 N3         N/A
* SWEET GRASS  N/A       86  45  24 N8G14      N/A
$$

MTZ011-013-016-021-035-040-045-047-050-051-010100-
NORTH CENTRAL MONTANA
CITY           SKY/WX    TMP DP  RH WIND       PRES   REMARKS
HAVRE          MOCLDY    90  43  19 E18G31    30.00R
LEWISTOWN      PTCLDY    91  36  14 W9        30.10F
* CHESTER      N/A       89  40  18 N7G12      N/A
* DENTON       N/A       92  46  20 N13G18     N/A
* GEYSER       N/A       90  43  19 NW14G19    N/A
* JUDITH GAP   N/A       88  48  25 N4         N/A
* LOMA         N/A       92  38  15 NW10       N/A
$$

MTZ017>020-022>027-061-062-010100-
NORTHEAST MONTANA
CITY           SKY/WX    TMP DP  RH WIND       PRES   REMARKS
GLASGOW        MOCLDY    95  39  14 E7        29.95S
GLENDIVE       PTCLDY    95  41  15 NW9       29.99F
JORDAN         CLOUDY    90  36  15 W21       29.99R
SIDNEY         CLEAR     95  48  20 CALM      29.97S
WOLF POINT     MOCLDY    97  34  11 W6        29.94S
* BEAVER HILL  N/A       92  41  17 SW6G14     N/A
* CIRCLE       N/A       94  47  20 N/A        N/A
* LINDSAY DVD  N/A       89  40  18 SW7G12     N/A
* NAVAJO       N/A       89  57  34 E9G14      N/A
$$

MTZ028>042-056>058-010100-
SOUTHCENTRAL AND SOUTHEAST MONTANA
CITY           SKY/WX    TMP DP  RH WIND       PRES   REMARKS
BAKER          CLEAR     91  36  14 NE3       30.05F
BILLINGS       CLOUDY    88  41  19 CALM      30.07S
LIVINGSTON     MOCLDY    84  39  20 VRB3      30.14S
MILES CITY     CLEAR     93  28  10 SW6       29.98F
* LAUREL APT   MOCLDY    90  41  18 N/A        N/A
* ROUNDUP APT  MOCLDY    91  37  15 N9         N/A
* ALZADA       N/A       87  43  21 E4         N/A
* HYSHAM       N/A       95  46  19 NW2        N/A
* LAME DEER    N/A       87  37  17 N/A        N/A
* REED POINT   N/A       86  45  24 E3         N/A
* ROSCOE HILL  N/A       81  39  22 VRB12      N/A
$$

REGIONAL REPORTS...DAKOTAS
CITY           SKY/WX    TMP DP  RH WIND       PRES   REMARKS
WILLISTON      CLEAR     88  55  33 E15       29.99F
DICKINSON      CLEAR     84  57  40 E8        30.03F HI  83
CROSBY         CLEAR     81  63  54 E10       30.03S HI  82
TIOGA          CLEAR     81  59  47 SE12      30.06F HI  81
WATFORD CITY   CLEAR     84  57  40 E13G20    29.98F HI  83
BISMARCK       CLEAR     84  48  29 SE7       30.03F
GRAND FORKS    PTCLDY    82  63  53 N5        29.98F HI  83
FARGO          CLEAR     82  59  46 NE6       29.99F HI  82
BUFFALO SD     MOCLDY    84  43  24 SW13      30.02F
RAPID CITY     MOCLDY    82  54  38 SW10      30.10F
$$

REGIONAL REPORTS...WYOMING/IDAHO/WASHINGTON
CITY           SKY/WX    TMP DP  RH WIND       PRES   REMARKS
GILLETTE       CLEAR     86  36  17 VRB3      30.13F
SHERIDAN       PTCLDY    86  41  20 W10       30.10S
CODY           MOCLDY    77  43  30 W12G21    30.19R
YELLOWSTONE LA CLOUDY    57  43  60 VRB3      30.46R
SALMON         PTCLDY    88  45  22 S3        30.03S
MULLAN PASS    PTCLDY    79  37  22 VRB3      30.29S
SAND POINT     CLEAR     91  46  21 E9        29.98F
SPOKANE        MOCLDY    99  27   8 W14G23    30.00F

$$




USA.gov is the U.S. government's official web portal to all federal, state and local government web resources and services.